Location: Unspecified
(0.0000°N, 0.0000°E)
Time: 22:57:30
(UTC+00:00)

Envisat - Pass Details

Date: 19 July 2017
Orbit: 764 x 766 km, 98.2° (Epoch: 20 November)

Event Time Altitude Azimuth Distance (km) Brightness Sun altitude
Exits shadow 21:14:33 13° 309° (NW) 2,097 5.8 -43.2°
Drops below altitude 10° 21:15:11 10° 314° (NW) 2,293 6.0 -43.3°
Sets 21:17:49 0° 326° (NW) 3,216 6.9 -43.9°
